Change the Weather History Date:

Sunday, January 13, 2013

  Actual Average (KTOC) Record (KTOC)
Temperature  
Mean Temperature 60 °F -  
Max Temperature 65 °F 49 °F 59 °F (2014)
Min Temperature 56 °F 31 °F 33 °F (2014)
Degree Days  
Heating Degree Days 5    
Growing Degree Days 10 (Base 50)    
Moisture  
Dew Point 54 °F    
Average Humidity 74    
Maximum Humidity 97    
Minimum Humidity 60    
Precipitation  
Precipitation 0.24 in - - ()
Sea Level Pressure  
Sea Level Pressure 30.08 in    
Wind  
Wind Speed 4 mph (SE)    
Max Wind Speed 12 mph    
Max Gust Speed 18 mph    
Visibility 10 miles    
Events Rain    
Averages and records for this station are not official NWS values.
T = Trace of Precipitation, MM = Missing Value Source: NWS Daily Summary

Daily Weather History Graph

Daily Weather History Graph

Search for Another Location

Airport or City:

Trip Planner

Search our weather history database for the weather conditions in past years. The results will help you decide how hot, cold, wet, or windy it might be!

Date:

Astronomy

Jan. 13, 2013 Rise Set
Actual Time 7:42 AM EST 5:43 PM EST
Civil Twilight 7:14 AM EST 6:10 PM EST
Nautical Twilight 6:43 AM EST 6:42 PM EST
Astronomical Twilight 6:12 AM EST 7:12 PM EST
Moon 8:46 AM EST (1/13) 8:13 PM EST (1/13)
Length of Visible Light 10h 56m
Length of Day
10h 01m
Waxing Crescent, 5% of the Moon is Illuminated
Jan 13
Waxing Crescent
Jan 18
First Quarter
Jan 26
Full
Feb 3
Last Quarter
Feb 10
New

Hourly Weather History & Observations

Time (EST) Temp. Dew Point Humidity Pressure Visibility Wind Dir Wind Speed Gust Speed Precip Events Conditions
12:15 AM 60.4 °F 54.5 °F 81% 30.11 in 10.0 mi Calm Calm - N/A   Overcast
12:35 AM 60.3 °F 54.0 °F 80% 30.10 in 10.0 mi East 3.5 mph - N/A   Overcast
12:55 AM 60.6 °F 53.8 °F 78% 30.09 in 10.0 mi ESE 6.9 mph - N/A   Mostly Cloudy
1:15 AM 60.8 °F 53.6 °F 77% 30.10 in 10.0 mi Calm Calm - N/A   Mostly Cloudy
1:35 AM 60.4 °F 53.6 °F 78% 30.10 in 10.0 mi East 3.5 mph - N/A   Mostly Cloudy
1:55 AM 60.1 °F 53.2 °F 78% 30.10 in 10.0 mi East 4.6 mph - N/A   Mostly Cloudy
2:15 AM 60.1 °F 53.1 °F 78% 30.09 in 10.0 mi East 4.6 mph - N/A   Mostly Cloudy
2:35 AM 60.1 °F 52.9 °F 77% 30.09 in 10.0 mi East 4.6 mph - N/A   Overcast
2:55 AM 60.4 °F 52.7 °F 76% 30.09 in 10.0 mi East 5.8 mph - N/A   Overcast
3:15 AM 60.1 °F 52.9 °F 77% 30.08 in 10.0 mi East 4.6 mph - N/A   Overcast
3:35 AM 59.5 °F 52.9 °F 79% 30.08 in 10.0 mi ENE 4.6 mph - N/A   Overcast
3:55 AM 57.9 °F 53.8 °F 86% 30.08 in 10.0 mi East 3.5 mph - N/A   Overcast
4:15 AM 57.2 °F 53.6 °F 88% 30.07 in 10.0 mi ENE 3.5 mph - N/A   Mostly Cloudy
4:35 AM 58.5 °F 53.2 °F 83% 30.07 in 10.0 mi Calm Calm - N/A   Mostly Cloudy
4:55 AM 57.7 °F 53.6 °F 86% 30.06 in 10.0 mi NE 4.6 mph - N/A   Overcast
5:15 AM 56.7 °F 51.6 °F 83% 30.06 in 10.0 mi Calm Calm - N/A   Scattered Clouds
5:35 AM 61.9 °F 50.9 °F 67% 30.06 in 10.0 mi South 3.5 mph - N/A   Scattered Clouds
5:55 AM 63.5 °F 50.5 °F 63% 30.06 in 10.0 mi South 9.2 mph 18.4 mph N/A   Scattered Clouds
6:15 AM 64.0 °F 51.3 °F 63% 30.07 in 10.0 mi ESE 5.8 mph - N/A   Mostly Cloudy
6:35 AM 64.2 °F 51.1 °F 62% 30.08 in 10.0 mi South 6.9 mph - N/A   Mostly Cloudy
7:35 AM 63.9 °F 49.8 °F 60% 30.11 in 10.0 mi South 4.6 mph - N/A   Scattered Clouds
7:55 AM 63.0 °F 49.8 °F 62% 30.12 in 10.0 mi SSW 4.6 mph - N/A   Scattered Clouds
8:15 AM 58.1 °F 50.2 °F 75% 30.12 in 10.0 mi ENE 4.6 mph - N/A   Clear
8:35 AM 60.4 °F 51.8 °F 73% 30.13 in 10.0 mi ESE 4.6 mph - N/A   Scattered Clouds
8:55 AM 62.6 °F 51.8 °F 68% 30.13 in 10.0 mi SE 4.6 mph - N/A   Mostly Cloudy
9:15 AM 63.9 °F 52.2 °F 66% 30.14 in 10.0 mi SSE 4.6 mph - N/A   Mostly Cloudy
9:35 AM 63.5 °F 52.5 °F 67% 30.13 in 10.0 mi SSE 6.9 mph - N/A   Mostly Cloudy
9:55 AM 64.0 °F 52.7 °F 67% 30.13 in 10.0 mi Calm Calm - N/A   Mostly Cloudy
10:15 AM 64.6 °F 52.7 °F 65% 30.13 in 10.0 mi SSE 4.6 mph - N/A   Overcast
10:35 AM 64.6 °F 53.2 °F 67% 30.13 in 10.0 mi South 3.5 mph - N/A   Overcast
10:55 AM 63.9 °F 53.1 °F 68% 30.12 in 10.0 mi South 3.5 mph - N/A   Overcast
11:15 AM 64.4 °F 53.6 °F 68% 30.11 in 10.0 mi SSE 5.8 mph - N/A   Overcast
11:35 AM 64.2 °F 54.0 °F 69% 30.11 in 10.0 mi SSE 5.8 mph - N/A   Overcast
11:55 AM 63.9 °F 54.0 °F 70% 30.10 in 10.0 mi SSE 8.1 mph - N/A   Overcast
12:15 PM 63.5 °F 54.1 °F 72% 30.09 in 10.0 mi SSE 6.9 mph - N/A   Overcast
12:35 PM 63.7 °F 54.1 °F 71% 30.08 in 10.0 mi SSE 6.9 mph - N/A   Overcast
12:55 PM 64.0 °F 54.1 °F 70% 30.07 in 10.0 mi South 6.9 mph - N/A   Overcast
1:15 PM 63.5 °F 54.5 °F 72% 30.07 in 10.0 mi SSE 8.1 mph - N/A   Overcast
1:35 PM 63.0 °F 54.7 °F 74% 30.07 in 10.0 mi SSE 11.5 mph 16.1 mph N/A   Overcast
1:55 PM 63.0 °F 54.7 °F 74% 30.06 in 10.0 mi SSE 8.1 mph - N/A   Overcast
2:15 PM 63.0 °F 54.1 °F 73% 30.06 in 10.0 mi SSE 6.9 mph - N/A   Overcast
2:35 PM 63.3 °F 53.6 °F 71% 30.06 in 10.0 mi SSE 5.8 mph - N/A   Overcast
2:55 PM 63.5 °F 53.2 °F 69% 30.07 in 10.0 mi South 8.1 mph - N/A   Overcast
3:15 PM 63.9 °F 52.7 °F 67% 30.07 in 10.0 mi SSE 4.6 mph - N/A   Overcast
3:35 PM 63.9 °F 52.5 °F 67% 30.08 in 10.0 mi SSE 3.5 mph - N/A   Overcast
3:55 PM 64.4 °F 52.7 °F 66% 30.07 in 10.0 mi SSE 3.5 mph - N/A   Overcast
4:15 PM 64.4 °F 53.1 °F 67% 30.08 in 10.0 mi SE 4.6 mph - N/A   Overcast
4:35 PM 64.0 °F 53.4 °F 68% 30.08 in 10.0 mi SE 3.5 mph - N/A   Overcast
4:55 PM 64.0 °F 53.2 °F 68% 30.08 in 10.0 mi SSE 6.9 mph - N/A   Overcast
5:15 PM 64.0 °F 52.7 °F 67% 30.08 in 10.0 mi SSE 3.5 mph - N/A   Overcast
5:35 PM 64.0 °F 52.9 °F 67% 30.07 in 10.0 mi SSE 4.6 mph - N/A   Overcast
5:55 PM 63.5 °F 53.6 °F 70% 30.07 in 10.0 mi SE 5.8 mph - N/A   Overcast
6:15 PM 63.1 °F 53.6 °F 71% 30.07 in 10.0 mi SE 4.6 mph - N/A   Mostly Cloudy
6:35 PM 62.6 °F 53.6 °F 72% 30.05 in 10.0 mi East 3.5 mph - N/A   Scattered Clouds
6:55 PM 62.4 °F 54.0 °F 74% 30.07 in 10.0 mi Calm Calm - N/A   Scattered Clouds
7:15 PM 62.6 °F 54.1 °F 74% 30.06 in 10.0 mi ESE 4.6 mph - N/A   Overcast
7:35 PM 63.1 °F 54.5 °F 73% 30.06 in 10.0 mi SSE 3.5 mph - N/A   Overcast
7:55 PM 63.5 °F 54.7 °F 73% 30.07 in 10.0 mi SE 4.6 mph - N/A   Overcast
8:15 PM 63.7 °F 54.9 °F 73% 30.07 in 10.0 mi SSE 6.9 mph - N/A   Overcast
8:35 PM 63.5 °F 55.4 °F 75% 30.06 in 10.0 mi SSE 4.6 mph - N/A   Overcast
8:55 PM 63.1 °F 55.8 °F 77% 30.06 in 10.0 mi SSE 9.2 mph - N/A   Drizzle
9:15 PM 63.3 °F 55.8 °F 76% 30.06 in 10.0 mi South 8.1 mph - N/A   Overcast
9:35 PM 62.6 °F 56.3 °F 80% 30.06 in 10.0 mi SSE 9.2 mph - N/A   Light Drizzle
9:55 PM 61.7 °F 56.7 °F 84% 30.06 in 7.0 mi SSE 8.1 mph - N/A Rain Rain
10:15 PM 61.0 °F 57.4 °F 88% 30.06 in 7.0 mi SSE 3.5 mph - 0.01 in Rain Light Rain
10:35 PM 60.8 °F 57.2 °F 88% 30.07 in 7.0 mi South 3.5 mph - 0.05 in Rain Rain
10:55 PM 60.6 °F 57.9 °F 91% 30.07 in 5.0 mi SSE 3.5 mph - 0.12 in Rain Rain
11:15 PM 60.4 °F 58.3 °F 93% 30.07 in 5.0 mi SSE 5.8 mph - 0.07 in Rain Rain
11:35 PM 60.6 °F 58.3 °F 92% 30.08 in 7.0 mi Calm Calm - 0.10 in Rain Light Rain
11:55 PM 59.5 °F 58.8 °F 97% 30.08 in 5.0 mi Calm Calm - 0.12 in Rain Heavy Rain